Location: Guferjoch
(46.7462°N, 8.4506°E)
Time: 13:20:38
(UTC+00:00)

Cosmos 921 Rocket - Pass Details

Date: 14 July 2020
Orbit: 572 x 632 km, 75.8° (Epoch: 07 August)

Event Time Altitude Azimuth Distance (km) Brightness Sun altitude
Rises 02:06:15 0° 337° (NNW) 2,899 6.9 -13.3°
Reaches altitude 10° 02:08:32 10° 334° (NNW) 1,980 6.0 -13.1°
Maximum altitude 02:12:53 58° 255° (WSW) 706 3.1 -12.6°
Drops below altitude 10° 02:17:06 10° 177° (S) 1,927 5.2 -12.2°
Enters shadow 02:17:10 10° 176° (S) 1,954 5.2 -12.2°
